This is the latest recevied weather packets stored in our database for station/object KE4ODN. If no packets are shown the sender has not sent any weather packets the latest 10 day(s).
| Time | Temp. | Humidity | Pressure | Rain* | Wind** | Luminosity | Snow |
|---|---|---|---|---|---|---|---|
| 1777672324 | 17.22° C | 78% | 1012.4 hPa | 0 mm | - | 54 W/m² | - |
| 1777671844 | 17.22° C | 79% | 1012.3 hPa | 0 mm | - | 69 W/m² | - |
| 1777670403 | 17.78° C | 73% | 1011.9 hPa | 0 mm | - | 120 W/m² | - |
| 1777668243 | 17.78° C | 70% | 1012.7 hPa | 0 mm | - | 151 W/m² | - |
| 1777667763 | 17.78° C | 71% | 1012.9 hPa | 0 mm | - | 162 W/m² | - |
| 1777666825 | 17.78° C | 69% | 1013.2 hPa | 0 mm | - | 174 W/m² | - |
| 1777664184 | 18.33° C | 73% | 1014.3 hPa | 0 mm | - | 316 W/m² | - |
| 1777662963 | 17.22° C | 78% | 1014.5 hPa | 0 mm | - | 206 W/m² | - |
| 1777661763 | 16.67° C | 78% | 1014.3 hPa | 0 mm | - | 171 W/m² | - |
| 1777660324 | 16.67° C | 79% | 1014.2 hPa | 0 mm | - | 185 W/m² | - |
| 1777659364 | 16.67° C | 80% | 1014.2 hPa | 0 mm | - | 287 W/m² | - |
| 1777658884 | 16.67° C | 78% | 1014.3 hPa | 0 mm | - | 267 W/m² | - |
| 1777658643 | 16.67° C | 77% | 1014.3 hPa | 0 mm | - | 250 W/m² | - |
| 1777657923 | 16.67° C | 79% | 1014.4 hPa | 0 mm | - | 318 W/m² | - |
| 1777657443 | 16.67° C | 82% | 1014.4 hPa | 0 mm | - | 309 W/m² | - |
| 1777656723 | 16.11° C | 83% | 1014.8 hPa | 0 mm | - | 243 W/m² | - |
| 1777654803 | 15.56° C | 84% | 1015.2 hPa | 0 mm | - | 139 W/m² | - |
| 1777654324 | 15.56° C | 83% | 1015.1 hPa | 0 mm | - | 142 W/m² | - |
| 1777654083 | 15.56° C | 84% | 1015.1 hPa | 0 mm | - | 114 W/m² | - |
| 1777653843 | 15.56° C | 82% | 1015.1 hPa | 0 mm | - | 111 W/m² | - |
| 1777653364 | 15.56° C | 83% | 1015.1 hPa | 0 mm | - | 120 W/m² | - |
| 1777652883 | 15° C | 82% | 1015.1 hPa | 0 mm | - | 123 W/m² | - |
| 1777652403 | 15.56° C | 83% | 1015.1 hPa | 0 mm | - | 120 W/m² | - |
| 1777651464 | 15° C | 82% | 1015.2 hPa | 0 mm | - | 100 W/m² | - |
| 1777650985 | 15° C | 84% | 1015.2 hPa | 0 mm | - | 95 W/m² | - |
* Rain latest hour (hover to see other rain measurements)
** Current wind speed in m/s (hover to see current wind gust speed)